User: anonymous   Login
Location: Newark
(44.3333°N, 7.6167°E)
Time: 13:54:37
(UTC+00:00)
Language:

POLYITAN 1 - Orbit

View from above orbital plane
View from above orbital plane
View from above satellite
View from above satellite

Ground track
Ground track

The orbit data is extracted from the following two-line orbital elements,

1 40042U 14033AJ  20021.52705189 +.00000277 +00000-0 +35591-4 0  9996
2 40042 097.9204 306.3304 0015882 058.8928 301.3844 14.88786750302985
Epoch (UTC): 21 January 2020 12:38:57
Eccentricity: 0.0015882
inclination: 97.9204°
perigee height: 590 km
apogee height: 613 km
right ascension of ascending node: 306.3304°
argument of perigee: 58.8928°
revolutions per day: 14.88786750
mean anomaly at epoch: 301.3844°
orbit number at epoch: 30298

The dashed part of the orbit path shows where the satellite is in the earth's shadow,  

DLR